Location: Unspecified
(52.4292°N, 19.3359°E)
Time: 02:21:57
(UTC+02:00)

Vanguard 1 Rocket - Pass Details

Date: 19 May 2024
Orbit: 649 x 4221 km, 34.3° (Epoch: 13 June)

Event Time Altitude Azimuth Distance (km) Brightness Sun altitude
Rises 12:43:37 0° 245° (WSW) 6,816 12.1 57.5°
Reaches altitude 10° 12:49:45 10° 236° (SW) 5,132 11.7 57.4°
Maximum altitude 12:59:43 26° 188° (S) 2,839 11.1 57.3°
Drops below altitude 10° 13:05:57 10° 134° (SE) 3,103 10.5 57.1°
Sets 13:08:37 0° 121° (ESE) 3,741 10.7 57.0°
